Location: Bacea
(45.9500°N, 22.6667°E)
Time: 20:28:27
(UTC+00:00)

Cosmos 2263 Rocket - Pass Details

Date: 16 October 2021
Orbit: 825 x 847 km, 71.0° (Epoch: 29 November)

Event Time Altitude Azimuth Distance (km) Brightness Sun altitude
Rises 19:04:44 0° 319° (NW) 3,372 6.2 -35.3°
Reaches altitude 10° 19:07:54 10° 302° (WNW) 2,433 5.4 -35.8°
Maximum altitude 19:11:31 18° 261° (W) 1,927 4.5 -36.4°
Enters shadow 19:13:10 16° 239° (WSW) 2,039 4.4 -36.6°
